Home > Weather > Stillwater > Past weeks

Flag for USA Past Weather in Stillwater, Minnesota, USA — Yesterday and Last 2 Weeks

Now
72 °F

Clear.


Feels Like: 72 °F
Forecast: 67 / 88 °F
Wind: No wind

Location: St. Paul Downtown Holman Field

Current Time: Jul 26, 2016 at 1:30:31 AM

Latest Report: Jul 26, 2016 at 12:53 AM


Visibility: 10 mi

Pressure: 30.02 "Hg

Humidity: 81%

Dew Point: 66 °F

Location of StillwaterLocation

Past Weather in Stillwater — Graph

°F

Stillwater Temperature Yesterday

Maximum temperature yesterday: 85 °F (at 2:53 PM)
Minimum temperature yesterday: 67 °F (at 5:53 AM)
Average temperature yesterday: 77 °F

High & Low Weather Summary for the Past Weeks

 TemperatureHumidityPressure
High95 °F (Jul 22, 2:53 PM)97% (Jul 23, 12:53 PM)30.18 "Hg (Jul 23, 12:53 PM)
Low60 °F (Jul 16, 4:53 AM)25% (Jul 22, 2:53 PM)29.53 "Hg (Jul 11, 8:53 PM)
Average76 °F70%29.91 "Hg
* Reported Jul 10 11:53 PM — Jul 25 11:53 PM, Stillwater, Weather by CustomWeather, © 2016

Note: Actual official high and low records may vary slightly from our data, if they occured in-between our weather recording intervals... More about our weather records

Advertising

Stillwater Weather History for the Previous 24 Hours

Scroll right to see more
 ConditionsComfort  
Time TempWeatherWind HumidityBarometerVisibility
11:53 PM
Mon, Jul 25
72 °FClear.No wind87%30.02 "Hg10 mi
10:53 PM73 °FClear.3 mph79%30.01 "Hg10 mi
9:53 PM79 °FClear.5 mph58%30.01 "Hg10 mi
8:53 PM80 °FSunny.7 mph58%30.00 "Hg10 mi
7:53 PM82 °FSunny.8 mph53%29.99 "Hg10 mi
6:53 PM84 °FSunny.10 mph48%29.99 "Hg10 mi
5:53 PM85 °FSunny.12 mph45%30.00 "Hg10 mi
4:53 PM85 °FSunny.6 mph46%30.00 "Hg10 mi
3:53 PM85 °FPassing clouds.14 mph45%30.01 "Hg10 mi
2:53 PM85 °FSunny.10 mph45%30.02 "Hg10 mi
1:53 PM84 °FSunny.10 mph45%30.02 "Hg10 mi
12:53 PM83 °FSunny.10 mph46%30.03 "Hg10 mi
11:53 AM81 °FSunny.10 mph49%30.03 "Hg10 mi
10:53 AM79 °FSunny.8 mph52%30.05 "Hg10 mi
9:53 AM78 °FSunny.8 mph56%30.05 "Hg10 mi
8:53 AM75 °FSunny.7 mph62%30.05 "Hg10 mi
7:53 AM72 °FSunny.6 mph71%30.04 "Hg10 mi
6:53 AM68 °FSunny.No wind82%30.02 "Hg10 mi
5:53 AM67 °FClear.3 mph81%30.00 "Hg10 mi
4:53 AM68 °FClear.No wind76%29.99 "Hg10 mi
3:53 AM68 °FClear.5 mph73%29.99 "Hg10 mi
2:53 AM70 °FClear.7 mph68%29.98 "Hg10 mi
1:53 AM71 °FClear.9 mph68%29.96 "Hg10 mi
Weather by CustomWeather, © 2016

See weather overviewHow to use our weather pages